map of MAN home
Great Circle Mapper logo
MAN - Airport
Location
City:  Manchester, England, United Kingdom
Name:Ringway International Airport
ICAO / IATA:EGCC / MAN

Details
Type:Airport (Aerodrome, Airfield)
Use:Public/Civil, International (customs port of entry)
Latitude:5321'14"N (53.353889)
Longitude:216'30"W (-2.274999)
Elevation:257 ft (78 m)
Variation:1.82W (WMM2015 magnetic declination)
0.16 annual change
Runways:2
Longest:10007 × 148 ft (3050 × 45 m), paved

Time
Time Zone:UTC+0 (DST+1)
Local Time:

Weather
METAR:EGCC 311720Z 33004KT 300V360 7000 -SHRA FEW004 SCT020 SCT035CB 14/13 Q1016 RESHRA NOSIG
TAF:EGCC 311702Z 3118/0124 30006KT 9999 SCT035
TEMPO 3118/0120 7000 SHRA PROB30
TEMPO 3118/0106 4000 +SHRA BKN008 BKN014CB

Related Locations
Nearby:
Farthest:NZBA: 11826 mi / 19033 km
Balclutha, NZ

Find:

   beyond  
but within

Other Information
Maps:
NOTAMs:
Links:
Sources:

  
flag of United Kingdom
flag of England
  

Airport Diagram

Airport diagram for MAN

Airport diagram PDF

Sectional Chart

Flight Planning
at skyvector.com

Satellite Image

Google Maps Satellite view

 

Copyright © 2004-2015 Karl L. Swartz. All rights reserved.
The Great Circle Mapper name and logo are trademarks of the Great Circle Mapper.
All other trademarks mentioned herein belong to their respective owners.
Please see credits for attibutions and further copyright information.

  Follow gcmap on Facebook Follow gcmap on Twitter Follow gcmap on Google+

hCard Microformat

Geo Microformat